Regional Weather Roundup
Issued by NWS

Home | Current Version | Previous Version | Text Only | Print | Product List | Glossary On
Versions: 1 2 3 4 5 6 7 8 9 10 11 12 13 14 15 16 17 18 19 20 21 22 23 24 25 26 27 28 29 30 31 32 33 34 35 36 37 38 39 40 41 42 43 44 45 46 47 48 49 50
000
ASUS46 KPQR 061210
RWROR

OREGON REGIONAL WEATHER ROUNDUP
NATIONAL WEATHER SERVICE PORTLAND OR
500 AM PDT MON JUL 06 2015

NOTE: "FAIR" INDICATES FEW OR NO CLOUDS BELOW 12,000 FEET WITH
NO SIGNIFICANT WEATHER AND/OR OBSTRUCTIONS TO VISIBILITY.

ORZ001>013-061300-
NORTHWEST OREGON


CITY           SKY/WX    TMP DP  RH WIND       PRES   REMARKS
ASTORIA        CLOUDY    57  53  86 SW5       30.00R
6HR MIN TEMP:  57; 6HR MAX TEMP:  59;

NEWPORT        CLOUDY    54  54 100 CALM      30.04S
PORTLAND       PTCLDY    63  56  78 N5        29.98R
6HR MIN TEMP:  63; 6HR MAX TEMP:  74;

VANCOUVER WA   CLEAR     62  54  74 CALM      29.98R
6HR MIN TEMP:  61; 6HR MAX TEMP:  73;

SCAPPOOSE      CLEAR     54  52  93 CALM      29.97R
6HR MIN TEMP:  54; 6HR MAX TEMP:  70;

HILLSBORO      CLEAR     56  51  84 CALM      29.97R
6HR MIN TEMP:  56; 6HR MAX TEMP:  70;

AURORA         CLEAR     58  51  78 CALM      29.99R
6HR MIN TEMP:  57; 6HR MAX TEMP:  71;

MCMINNVILLE    CLEAR     56  51  84 W6        29.99R
6HR MIN TEMP:  55; 6HR MAX TEMP:  65;

SALEM          CLEAR     60  51  72 CALM      29.98R
6HR MIN TEMP:  60; 6HR MAX TEMP:  73;

CORVALLIS      CLEAR     55  52  88 W14       30.01R
EUGENE         PTCLDY    58  52  80 W6        30.00R
6HR MIN TEMP:  58; 6HR MAX TEMP:  69;

$$

ORZ021-028-061300-
SOUTHWEST OREGON


CITY           SKY/WX    TMP DP  RH WIND       PRES   REMARKS
NORTH BEND     CLOUDY    57  55  94 CALM      30.03R
6HR MIN TEMP:  55; 6HR MAX TEMP:  57;

BROOKINGS      FOG       57  57 100 S7        30.04R VSB 3/4
ROSEBURG       CLEAR     66  55  67 CALM      29.97R
6HR MIN TEMP:  65; 6HR MAX TEMP:  76;

SEXTON SUMMIT  PTCLDY    69  48  47 CALM      30.09R
6HR MIN TEMP:  69; 6HR MAX TEMP:  71; 6HR PCP: TRACE;

MEDFORD        PTCLDY    68  55  63 CALM      29.97R
6HR MIN TEMP:  68; 6HR MAX TEMP:  80;

$$

ORZ014>016-041-061300-
COLUMBIA GORGE


CITY           SKY/WX    TMP DP  RH WIND       PRES   REMARKS
TROUTDALE      CLEAR     64  55  72 CALM      29.96R
6HR MIN TEMP:  64; 6HR MAX TEMP:  77;

THE DALLES     CLEAR     75  52  44 NW8       29.90R
6HR MIN TEMP:  75; 6HR MAX TEMP:  88;

$$

ORZ029>031-041-044-049-050-061>064-502-503-505>511-061300-
EASTERN OREGON


CITY           SKY/WX    TMP DP  RH WIND       PRES   REMARKS
REDMOND        CLEAR     57  42  57 S7        30.05R
6HR MIN TEMP:  54; 6HR MAX TEMP:  76;

BEND             N/A    N/A N/A N/A MISG        N/A
PRINEVILLE     CLEAR     52  41  66 CALM      30.06R
KLAMATH FALLS  PTCLDY    52  47  83 CALM      30.12R
6HR MIN TEMP:  52; 6HR MAX TEMP:  66;

LAKEVIEW       CLEAR     48  45  87 N5        30.17R
HERMISTON      CLEAR     62  48  60 E3        29.90R
6HR MIN TEMP:  61; 6HR MAX TEMP:  76;

PENDLETON      CLEAR     66  41  40 SE6       29.94R
6HR MIN TEMP:  65; 6HR MAX TEMP:  83;

JOHN DAY       CLEAR     60  46  59 E8        30.09R
MEACHAM        CLEAR     47  43  86 CALM      30.08R
6HR MIN TEMP:  47; 6HR MAX TEMP:  58;

LA GRANDE      CLEAR     55  37  50 CALM      30.03S
6HR MIN TEMP:  55; 6HR MAX TEMP:  72;

BAKER CITY     CLEAR     51  43  74 CALM      30.06R
6HR MIN TEMP:  48; 6HR MAX TEMP:  62;

BURNS          MOCLDY    57  47  69 N3        30.12R
6HR MIN TEMP:  57; 6HR MAX TEMP:  66;

ROME             N/A     67  50  54 S7        30.11R
6HR MIN TEMP:  65; 6HR MAX TEMP:  71;

ONTARIO        PTCLDY    61  55  81 W3        30.00R
6HR MIN TEMP:  61; 6HR MAX TEMP:  73;

$$


USA.gov is the U.S. government's official web portal to all federal, state and local government web resources and services.